This is the latest recevied weather packets stored in our database for station/object KR4KUV. If no packets are shown the sender has not sent any weather packets the latest 10 day(s).
| Time | Temp. | Humidity | Pressure | Rain* | Wind** | Luminosity | Snow |
|---|---|---|---|---|---|---|---|
| 1787775692 | 30.56° C | 64% | 1017.8 hPa | 0 mm | - | 217 W/m² | - |
| 1787775390 | 31.11° C | 62% | 1017.9 hPa | 0 mm | - | 178 W/m² | - |
| 1787775085 | 31.11° C | 67% | 1017.9 hPa | 0 mm | - | 241 W/m² | - |
| 1787774784 | 30° C | 71% | 1017.9 hPa | 0 mm | - | 525 W/m² | - |
| 1787774479 | 29.44° C | 69% | 1018 hPa | 0 mm | - | 182 W/m² | - |
| 1787774178 | 29.44° C | 69% | 1018.2 hPa | 0 mm | - | 129 W/m² | - |
| 1787773877 | 30° C | 69% | 1018.1 hPa | 0 mm | - | 119 W/m² | - |
| 1787773575 | 30° C | 67% | 1018.1 hPa | 0 mm | - | 131 W/m² | - |
| 1787773272 | 30° C | 66% | 1018.3 hPa | 0 mm | - | 153 W/m² | - |
| 1787772967 | 30° C | 67% | 1018.2 hPa | 0 mm | - | 200 W/m² | - |
| 1787772663 | 30.56° C | 67% | 1018.4 hPa | 0 mm | - | 630 W/m² | - |
| 1787772361 | 30° C | 66% | 1018.4 hPa | 0 mm | - | 219 W/m² | - |
| 1787772060 | 30.56° C | 65% | 1018.5 hPa | 0 mm | - | 171 W/m² | - |
| 1787771755 | 30.56° C | 65% | 1018.4 hPa | 0 mm | - | 199 W/m² | - |
| 1787771454 | 31.11° C | 65% | 1018.7 hPa | 0 mm | - | 182 W/m² | - |
| 1787771153 | 31.67° C | 67% | 1018.6 hPa | 0 mm | - | 696 W/m² | - |
| 1787770849 | 31.11° C | 65% | 1018.6 hPa | 0 mm | - | 683 W/m² | - |
| 1787770547 | 31.67° C | 68% | 1018.7 hPa | 0 mm | - | 673 W/m² | - |
| 1787770247 | 31.11° C | 65% | 1018.8 hPa | 0 mm | - | 642 W/m² | - |
| 1787769946 | 31.11° C | 65% | 1018.8 hPa | 0 mm | - | 658 W/m² | - |
| 1787769641 | 31.67° C | 66% | 1018.8 hPa | 0 mm | - | 271 W/m² | - |
| 1787769338 | 31.11° C | 66% | 1018.7 hPa | 0 mm | - | 721 W/m² | - |
| 1787769034 | 30.56° C | 67% | 1018.8 hPa | 0 mm | - | 768 W/m² | - |
| 1787768729 | 30° C | 70% | 1019 hPa | 0 mm | - | 671 W/m² | - |
| 1787768426 | 30° C | 69% | 1019.1 hPa | 0 mm | - | 205 W/m² | - |
* Rain latest hour (hover to see other rain measurements)
** Current wind speed in m/s (hover to see current wind gust speed)